EW6576 Weather Reports


Display with metric or nautical units.
time (UTC)temp
F
wind
direction
speed
MPH
gust
MPH
rain 1hr
in
rain 24hr
in
rain mn
in
humidity
%
barometer
mb
20260903180245 80 156 1.0 1.0 0.00 0.00 0.00 44 1014.4
20260903175744 80 88 1.0 2.0 0.00 0.00 0.00 47 1014.4
20260903175244 79 2 3.0 5.0 0.00 0.00 0.00 46 1014.5
20260903174743 78 176 1.0 1.0 0.00 0.00 0.00 48 1014.5
20260903174238 78 143 1.0 1.0 0.00 0.00 0.00 49 1014.6
20260903173734 77 146 1.0 1.0 0.00 0.00 0.00 50 1014.7
20260903173229 77 91 2.0 2.0 0.00 0.00 0.00 51 1014.6
20260903172724 77 186 1.0 2.0 0.00 0.00 0.00 53 1014.6
20260903172219 77 10 1.0 2.0 0.00 0.00 0.00 53 1014.6
20260903171714 75 131 1.0 1.0 0.00 0.00 0.00 55 1014.6
20260903171210 75 333 1.0 2.0 0.00 0.00 0.00 57 1014.6
20260903170709 75 101 1.0 1.0 0.00 0.00 0.00 58 1014.6
20260903170204 75 75 1.0 1.0 0.00 0.00 0.00 60 1014.7
20260903165702 73 222 1.0 1.0 0.00 0.00 0.00 64 1014.8
20260903165157 73 272 2.0 2.0 0.00 0.00 0.00 65 1014.8
20260903164652 74 192 0.0 1.0 0.00 0.00 0.00 65 1014.8
20260903164148 73 153 0.0 0.0 0.00 0.00 0.00 66 1014.8
20260903163648 73 101 1.0 1.0 0.00 0.00 0.00 65 1014.9
20260903163144 73 168 0.0 1.0 0.00 0.00 0.00 65 1014.8
20260903162640 72 138 0.0 0.0 0.00 0.00 0.00 68 1014.9
20260903162135 72 132 1.0 1.0 0.00 0.00 0.00 68 1014.9
20260903161631 71 147 0.0 1.0 0.00 0.00 0.00 70 1014.8
20260903161126 71 179 0.0 0.0 0.00 0.00 0.00 69 1014.9
20260903160621 71 161 0.0 0.0 0.00 0.00 0.00 68 1015.0
20260903160115 70 188 1.0 1.0 0.00 0.00 0.00 68 1015.1
20260903155614 70 30 0.0 1.0 0.00 0.00 0.00 69 1015.2
20260903155110 69 152 0.0 0.0 0.00 0.00 0.00 68 1015.2
20260903154605 69 158 0.0 0.0 0.00 0.00 0.00 68 1015.0
20260903154102 67 167 0.0 0.0 0.00 0.00 0.00 70 1015.1
20260903153557 67 206 1.0 1.0 0.00 0.00 0.00 71 1014.9
20260903153052 66 187 0.0 0.0 0.00 0.00 0.00 72 1015.1
20260903152548 66 183 0.0 0.0 0.00 0.00 0.00 71 1015.3
20260903152045 66 199 1.0 1.0 0.00 0.00 0.00 71 1014.9
20260903151543 65 145 0.0 0.0 0.00 0.00 0.00 73 1015.4
20260903151038 66 230 1.0 1.0 0.00 0.00 0.00 71 1015.1
20260903150533 65 143 0.0 0.0 0.00 0.00 0.00 72 1015.0
20260903150028 64 126 0.0 0.0 0.00 0.00 0.00 76 1015.3
20260903145528 63 140 0.0 0.0 0.00 0.00 0.00 89 1015.3
20260903145023 61 139 0.0 0.0 0.00 0.00 0.00 94 1015.2
20260903144522 61 140 0.0 0.0 0.00 0.00 0.00 97 1015.2
20260903144019 59 139 0.0 0.0 0.00 0.00 0.00 98 1015.2
20260903143514 58 139 0.0 0.0 0.00 0.00 0.00 98 1015.1
20260903143010 57 140 0.0 0.0 0.00 0.00 0.00 99 1015.2
20260903142505 57 140 0.0 0.0 0.00 0.00 0.00 99 1015.2
20260903142002 57 140 0.0 0.0 0.00 0.00 0.00 99 1015.0
20260903141457 57 140 0.0 0.0 0.00 0.00 0.00 99 1015.0
20260903140952 59 140 0.0 0.0 0.00 0.00 0.00 99 1015.0
20260903140448 56 140 0.0 0.0 0.00 0.00 0.00 99 1015.0
20260903135943 55 140 0.0 0.0 0.00 0.00 0.00 99 1015.0
20260903135439 53 141 0.0 0.0 0.00 0.00 0.00 99 1014.7
20260903134939 53 141 0.0 0.0 0.00 0.00 0.00 99 1014.6
20260903134437 53 141 0.0 0.0 0.00 0.00 0.00 99 1014.6
20260903133935 53 142 0.0 0.0 0.00 0.00 0.00 99 1014.5
20260903133432 53 142 0.0 0.0 0.00 0.00 0.00 99 1014.6
20260903132927 53 142 0.0 0.0 0.00 0.00 0.00 99 1014.7
20260903132422 53 142 0.0 0.0 0.00 0.00 0.00 99 1014.6
20260903131917 53 142 0.0 0.0 0.00 0.00 0.00 99 1014.4
20260903131416 53 142 0.0 0.0 0.00 0.00 0.00 99 1014.5
20260903130915 53 142 0.0 0.0 0.00 0.00 0.00 99 1014.6
20260903130411 53 142 0.0 0.0 0.00 0.00 0.00 99 1014.6
20260903125910 53 142 0.0 0.0 0.00 0.00 0.00 99 1014.4
20260903125409 53 142 1.0 1.0 0.00 0.00 0.00 99 1014.4
20260903124904 54 142 0.0 0.0 0.00 0.00 0.00 99 1014.4
20260903124359 53 142 0.0 0.0 0.00 0.00 0.00 99 1014.4
20260903123858 53 142 0.0 0.0 0.00 0.00 0.00 99 1014.3
20260903123353 53 142 0.0 0.0 0.00 0.00 0.00 99 1014.5
20260903122851 53 142 0.0 0.0 0.00 0.00 0.00 99 1014.3
20260903122346 54 142 0.0 0.0 0.00 0.00 0.00 99 1014.4
20260903121845 54 142 0.0 0.0 0.00 0.00 0.00 99 1014.4
20260903121340 54 141 0.0 0.0 0.00 0.00 0.00 99 1014.3
20260903120836 54 141 0.0 0.0 0.00 0.00 0.00 99 1014.3
20260903120335 54 143 1.0 1.0 0.00 0.00 0.00 99 1014.3
20260903115833 54 143 0.0 0.0 0.00 0.00 0.00 99 1014.3
20260903115329 54 143 0.0 0.0 0.00 0.00 0.00 99 1014.2
20260903114828 54 143 0.0 0.0 0.00 0.00 0.00 99 1014.2
20260903114324 54 143 0.0 0.0 0.00 0.00 0.00 99 1014.3
20260903113819 55 143 0.0 0.0 0.00 0.00 0.00 99 1014.6
20260903113315 55 143 0.0 1.0 0.00 0.00 0.00 99 1014.4
20260903112810 54 142 1.0 1.0 0.00 0.00 0.00 99 1014.4
20260903112306 54 143 1.0 1.0 0.00 0.00 0.00 98 1014.3
20260903111805 54 143 0.0 0.0 0.00 0.00 0.00 99 1014.6
20260903111300 53 143 0.0 1.0 0.00 0.00 0.00 98 1014.6
20260903110756 54 143 0.0 0.0 0.00 0.00 0.00 98 1014.4
20260903110251 54 143 0.0 0.0 0.00 0.00 0.00 98 1014.4
20260903105751 54 143 0.0 0.0 0.00 0.00 0.00 98 1014.5
20260903105246 54 143 0.0 0.0 0.00 0.00 0.00 98 1014.3
20260903104746 54 143 0.0 0.0 0.00 0.00 0.00 98 1014.5
20260903104241 54 143 0.0 0.0 0.00 0.00 0.00 98 1014.4
20260903103737 54 143 0.0 0.0 0.00 0.00 0.00 98 1014.3
20260903103233 54 143 0.0 0.0 0.00 0.00 0.00 98 1014.7
20260903102729 54 143 0.0 1.0 0.00 0.00 0.00 98 1014.5
20260903102223 54 143 0.0 0.0 0.00 0.00 0.00 98 1014.7
20260903101721 54 143 0.0 0.0 0.00 0.00 0.00 98 1014.6
20260903101217 54 143 0.0 0.0 0.00 0.00 0.00 98 1014.6
20260903100711 55 143 0.0 0.0 0.00 0.00 0.00 98 1014.6
20260903100206 54 143 0.0 0.0 0.00 0.00 0.00 98 1014.8
20260903095703 54 143 0.0 0.0 0.00 0.00 0.00 98 1014.7
20260903095158 54 143 1.0 1.0 0.00 0.00 0.00 98 1015.0
20260903094653 55 143 0.0 0.0 0.00 0.00 0.00 98 1014.7
20260903094149 55 143 0.0 0.0 0.00 0.00 0.00 98 1015.0
20260903093644 55 143 0.0 0.0 0.00 0.00 0.00 98 1014.9
20260903093139 55 143 0.0 0.0 0.00 0.00 0.00 98 1015.0
20260903092639 55 143 0.0 0.0 0.00 0.00 0.00 98 1015.0
20260903092134 55 143 0.0 0.0 0.00 0.00 0.00 98 1014.9
20260903091632 55 143 1.0 1.0 0.00 0.00 0.00 97 1014.8
20260903091126 55 143 0.0 0.0 0.00 0.00 0.00 97 1015.1
20260903090622 56 143 0.0 0.0 0.00 0.00 0.00 97 1015.0
20260903090121 55 143 0.0 0.0 0.00 0.00 0.00 97 1014.9
20260903085619 55 143 0.0 0.0 0.00 0.00 0.00 97 1015.2
20260903085116 56 143 0.0 0.0 0.00 0.00 0.00 97 1015.2
20260903084613 56 143 0.0 0.0 0.00 0.00 0.00 97 1015.3
20260903084108 55 143 0.0 0.0 0.00 0.00 0.00 97 1015.5
20260903083603 55 143 0.0 0.0 0.00 0.00 0.00 97 1015.4
20260903083058 55 143 0.0 0.0 0.00 0.00 0.00 97 1015.3
20260903082552 55 143 0.0 0.0 0.00 0.00 0.00 97 1015.3
20260903082048 56 143 0.0 0.0 0.00 0.00 0.00 97 1015.2
20260903081543 56 143 0.0 0.0 0.00 0.00 0.00 97 1015.6
20260903081039 56 143 0.0 0.0 0.00 0.00 0.00 97 1015.3
20260903080535 56 143 0.0 0.0 0.00 0.00 0.00 97 1015.4
20260903080032 55 143 0.0 0.0 0.00 0.00 0.00 96 1015.6
20260903075526 55 143 0.0 0.0 0.00 0.00 0.00 96 1015.5
20260903075021 56 143 0.0 0.0 0.00 0.00 0.00 96 1015.6
20260903074520 56 143 0.0 0.0 0.00 0.00 0.00 96 1015.4
20260903074015 56 143 0.0 0.0 0.00 0.00 0.00 96 1015.5
20260903073510 56 143 0.0 0.0 0.00 0.00 0.00 96 1015.6
20260903073007 56 143 0.0 0.0 0.00 0.00 0.00 96 1015.4
20260903072502 56 143 0.0 0.0 0.00 0.00 0.00 96 1015.5
20260903071958 56 143 0.0 0.0 0.00 0.00 0.00 96 1015.5
20260903071455 56 143 0.0 0.0 0.00 0.00 0.00 96 1015.3
20260903070950 56 143 0.0 0.0 0.00 0.00 0.00 96 1015.3
20260903070450 56 143 0.0 0.0 0.00 0.00 0.00 96 1015.5
20260903065949 57 143 0.0 0.0 0.00 0.00 0.00 96 1015.4
20260903065445 56 143 0.0 0.0 0.00 0.00 0.00 96 1015.5
20260903064944 57 143 0.0 0.0 0.00 0.00 0.00 95 1015.5
20260903064438 57 143 1.0 1.0 0.00 0.00 0.00 95 1015.6
20260903063929 57 143 0.0 0.0 0.00 0.00 0.00 95 1015.4
20260903063424 57 143 1.0 1.0 0.00 0.00 0.00 95 1015.5
20260903062919 57 143 0.0 0.0 0.00 0.00 0.00 95 1015.5
20260903062414 57 146 1.0 1.0 0.00 0.00 0.00 95 1015.5
20260903061910 57 146 0.0 0.0 0.00 0.00 0.00 95 1015.4
20260903061409 57 146 0.0 0.0 0.00 0.00 0.00 95 1015.5
20260903060905 57 146 0.0 0.0 0.00 0.00 0.00 94 1015.4
20260903060405 58 146 0.0 0.0 0.00 0.00 0.00 94 1015.6
20260903055902 58 147 0.0 0.0 0.00 0.00 0.00 94 1015.4
20260903055401 58 147 0.0 0.0 0.00 0.00 0.00 94 1015.6
20260903054856 58 147 0.0 1.0 0.00 0.00 0.00 94 1015.5
20260903054356 58 148 0.0 1.0 0.00 0.00 0.00 94 1015.8
20260903053852 58 148 0.0 0.0 0.00 0.00 0.00 93 1015.8
20260903053347 59 148 0.0 0.0 0.00 0.00 0.00 94 1015.7
20260903052843 59 149 0.0 0.0 0.00 0.00 0.00 93 1015.7
20260903052338 59 148 0.0 1.0 0.00 0.00 0.00 93 1015.8
20260903051834 59 150 0.0 0.0 0.00 0.00 0.00 93 1015.6
20260903051329 59 150 0.0 0.0 0.00 0.00 0.00 92 1015.7
20260903050825 60 152 0.0 0.0 0.00 0.00 0.00 92 1015.7
20260903050324 60 152 0.0 0.0 0.00 0.00 0.00 92 1015.7
20260903045819 59 151 0.0 0.0 0.00 0.00 0.00 92 1015.8
20260903045314 60 175 0.0 0.0 0.00 0.00 0.00 92 1015.6
20260903044811 60 138 0.0 1.0 0.00 0.00 0.00 92 1015.7
20260903044306 60 138 0.0 0.0 0.00 0.00 0.00 92 1015.6
20260903043803 60 153 1.0 1.0 0.00 0.00 0.00 91 1015.6
20260903043302 60 140 1.0 1.0 0.00 0.00 0.00 91 1015.5
20260903042801 61 157 0.0 0.0 0.00 0.00 0.00 91 1015.8
20260903042257 60 154 0.0 0.0 0.00 0.00 0.00 91 1015.5
20260903041753 61 143 0.0 0.0 0.00 0.00 0.00 90 1015.5
20260903041249 61 149 0.0 0.0 0.00 0.00 0.00 90 1015.4
20260903040748 62 209 1.0 1.0 0.00 0.00 0.00 89 1015.5
20260903040243 62 147 1.0 1.0 0.00 0.00 0.00 89 1015.4
20260903035739 62 163 0.0 1.0 0.00 0.00 0.00 89 1015.1
20260903035234 63 150 0.0 0.0 0.00 0.00 0.00 88 1015.2
20260903034729 63 153 0.0 0.0 0.00 0.00 0.00 88 1015.4
20260903034224 64 158 0.0 0.0 0.00 0.00 0.00 87 1015.0
20260903033719 64 159 0.0 0.0 0.00 0.00 0.00 87 1015.0
20260903033214 64 154 1.0 1.0 0.00 0.00 0.00 87 1014.9
20260903032708 64 155 0.0 0.0 0.00 0.00 0.00 87 1014.9
20260903032204 65 168 0.0 0.0 0.00 0.00 0.00 87 1014.9
20260903031700 65 145 2.0 2.0 0.00 0.00 0.00 85 1014.9
20260903031159 65 158 0.0 1.0 0.00 0.00 0.00 85 1014.9
20260903030656 65 151 0.0 1.0 0.00 0.00 0.00 85 1014.7
20260903030151 66 147 0.0 1.0 0.00 0.00 0.00 84 1014.8
20260903025646 66 148 0.0 1.0 0.00 0.00 0.00 84 1014.8
20260903025142 66 192 1.0 1.0 0.00 0.00 0.00 83 1014.6
20260903024636 67 151 2.0 2.0 0.00 0.00 0.00 82 1014.7
20260903024136 67 138 1.0 1.0 0.00 0.00 0.00 82 1014.7
20260903023632 67 106 2.0 2.0 0.00 0.00 0.00 81 1014.7
20260903023132 67 129 2.0 2.0 0.00 0.00 0.00 80 1014.7
20260903022626 68 116 2.0 3.0 0.00 0.00 0.00 79 1014.4
20260903022125 68 143 2.0 2.0 0.00 0.00 0.00 79 1014.7
20260903021620 68 128 3.0 5.0 0.00 0.00 0.00 78 1014.7
20260903021120 68 131 3.0 3.0 0.00 0.00 0.00 77 1014.6
20260903020615 69 102 3.0 3.0 0.00 0.00 0.00 76 1014.6
20260903020110 69 129 3.0 3.0 0.00 0.00 0.00 75 1014.6
20260903015606 69 125 3.0 3.0 0.00 0.00 0.00 74 1014.6
20260903015100 70 149 5.0 6.0 0.00 0.00 0.00 73 1014.5
20260903014555 70 132 3.0 3.0 0.00 0.00 0.00 71 1014.5
20260903014049 70 142 3.0 3.0 0.00 0.00 0.00 69 1014.5
20260903013549 71 137 3.0 5.0 0.00 0.00 0.00 68 1014.7
20260903013044 71 97 5.0 6.0 0.00 0.00 0.00 65 1014.3
20260903012543 72 147 2.0 2.0 0.00 0.00 0.00 64 1014.5
20260903012037 73 119 4.0 5.0 0.00 0.00 0.00 63 1014.4
20260903011537 73 123 3.0 3.0 0.00 0.00 0.00 62 1014.2
20260903011032 74 154 3.0 3.0 0.00 0.00 0.00 59 1014.4
20260903010527 75 153 0.0 1.0 0.00 0.00 0.00 59 1014.2
20260903010026 75 119 3.0 3.0 0.00 0.00 0.00 56 1014.4
20260903005526 76 166 1.0 1.0 0.00 0.00 0.00 57 1014.3
20260903005021 76 133 1.0 1.0 0.00 0.00 0.00 58 1014.3
20260903004521 76 157 1.0 2.0 0.00 0.00 0.00 57 1014.3
20260903004017 75 125 5.0 6.0 0.00 0.00 0.00 57 1014.1
20260903003512 76 181 1.0 1.0 0.00 0.00 0.00 58 1014.3
20260903003008 77 178 3.0 3.0 0.00 0.00 0.00 56 1014.2
20260903002507 77 182 1.0 1.0 0.00 0.00 0.00 57 1014.1
20260903002001 76 115 3.0 3.0 0.00 0.00 0.00 57 1014.3
20260903001456 77 189 2.0 2.0 0.00 0.00 0.00 57 1014.2
20260903000950 76 162 1.0 1.0 0.00 0.00 0.00 57 1014.3
20260903000447 77 132 2.0 2.0 0.00 0.00 0.00 56 1014.2
20260902235943 77 205 4.0 5.0 0.00 0.00 0.00 56 1014.2
20260902235438 78 134 5.0 6.0 0.00 0.00 0.00 54 1014.4
20260902234932 77 133 4.0 5.0 0.00 0.00 0.00 53 1014.5
20260902234428 77 174 1.0 2.0 0.00 0.00 0.00 54 1014.4
20260902233927 78 144 1.0 2.0 0.00 0.00 0.00 56 1014.3
20260902233421 78 63 5.0 7.0 0.00 0.00 0.00 56 1014.4
20260902232920 78 178 3.0 6.0 0.00 0.00 0.00 54 1014.2
20260902232415 77 210 4.0 5.0 0.00 0.00 0.00 58 1014.4
20260902231914 79 168 5.0 6.0 0.00 0.00 0.00 55 1014.4
20260902231410 79 92 3.0 3.0 0.00 0.00 0.00 55 1014.6
20260902230904 78 148 0.0 1.0 0.00 0.00 0.00 55 1014.4
20260902230404 78 98 3.0 3.0 0.00 0.00 0.00 55 1014.7
20260902225858 77 201 3.0 3.0 0.00 0.00 0.00 56 1014.6
20260902225353 78 91 2.0 3.0 0.00 0.00 0.00 58 1014.7
20260902224851 77 179 3.0 3.0 0.00 0.00 0.00 56 1014.6
20260902224346 78 98 7.0 11.0 0.00 0.00 0.00 55 1014.8
20260902223843 78 113 6.0 7.0 0.00 0.00 0.00 56 1014.6
20260902223343 78 175 1.0 1.0 0.00 0.00 0.00 58 1014.6
20260902222837 78 126 5.0 7.0 0.00 0.00 0.00 56 1014.8
20260902222336 79 209 3.0 3.0 0.00 0.00 0.00 56 1014.7
20260902221831 80 152 1.0 1.0 0.00 0.00 0.00 55 1014.8
20260902221330 80 171 2.0 2.0 0.00 0.00 0.00 57 1014.8
20260902220825 80 104 3.0 5.0 0.00 0.00 0.00 58 1014.8
20260902220325 79 133 4.0 5.0 0.00 0.00 0.00 58 1014.8
20260902215820 79 115 3.0 6.0 0.00 0.00 0.00 58 1014.7
20260902215315 80 114 3.0 5.0 0.00 0.00 0.00 57 1014.9
20260902214811 79 188 5.0 7.0 0.00 0.00 0.00 58 1015.0
20260902214310 80 179 2.0 2.0 0.00 0.00 0.00 59 1014.8
20260902213805 80 212 3.0 3.0 0.00 0.00 0.00 59 1014.9
20260902213301 80 114 3.0 3.0 0.00 0.00 0.00 57 1015.1
20260902212759 80 203 0.0 1.0 0.00 0.00 0.00 59 1015.0
20260902212256 79 169 7.0 9.0 0.00 0.00 0.00 60 1014.9
20260902211752 79 79 8.0 10.0 0.00 0.00 0.00 58 1015.1
20260902211248 80 164 1.0 2.0 0.00 0.00 0.00 56 1015.0
20260902210747 81 165 5.0 8.0 0.00 0.00 0.00 55 1015.0
20260902210243 81 146 4.0 6.0 0.00 0.00 0.00 51 1015.0
20260902205741 81 89 2.0 3.0 0.00 0.00 0.00 55 1014.9
20260902205236 80 112 3.0 5.0 0.00 0.00 0.00 56 1014.9
20260902204731 81 100 4.0 9.0 0.00 0.00 0.00 55 1015.3
20260902204227 81 180 2.0 3.0 0.00 0.00 0.00 52 1014.9
20260902203721 81 150 1.0 1.0 0.00 0.00 0.00 55 1015.1
20260902203216 80 187 2.0 2.0 0.00 0.00 0.00 55 1015.2
20260902202710 81 156 3.0 5.0 0.00 0.00 0.00 55 1015.3
20260902202207 80 244 3.0 5.0 0.00 0.00 0.00 55 1015.2
20260902201703 81 93 7.0 9.0 0.00 0.00 0.00 57 1015.1
20260902201202 82 145 2.0 2.0 0.00 0.00 0.00 55 1015.4
20260902200657 82 165 2.0 2.0 0.00 0.00 0.00 53 1015.2
20260902200153 83 153 2.0 3.0 0.00 0.00 0.00 52 1015.4
20260902195648 82 146 4.0 5.0 0.00 0.00 0.00 53 1015.3
20260902195143 82 135 4.0 5.0 0.00 0.00 0.00 54 1015.4
20260902194641 82 119 3.0 3.0 0.00 0.00 0.00 55 1015.5
20260902194136 82 178 2.0 2.0 0.00 0.00 0.00 53 1015.5
20260902193632 82 73 5.0 6.0 0.00 0.00 0.00 52 1015.5
20260902193127 83 113 7.0 9.0 0.00 0.00 0.00 47 1015.3
20260902192626 82 63 2.0 2.0 0.00 0.00 0.00 48 1015.6
20260902192125 82 111 3.0 5.0 0.00 0.00 0.00 48 1015.7
20260902191620 83 118 7.0 9.0 0.00 0.00 0.00 48 1015.7
20260902191114 82 104 8.0 8.0 0.00 0.00 0.00 50 1015.5
20260902190610 82 161 2.0 3.0 0.00 0.00 0.00 50 1015.8
20260902190105 82 167 3.0 3.0 0.00 0.00 0.00 49 1015.7
20260902185601 81 146 2.0 2.0 0.00 0.00 0.00 47 1015.7
20260902185056 81 102 1.0 1.0 0.00 0.00 0.00 49 1015.8
20260902184551 81 112 3.0 3.0 0.00 0.00 0.00 49 1015.7
20260902184046 81 171 2.0 3.0 0.00 0.00 0.00 51 1016.0
20260902183543 81 179 1.0 2.0 0.00 0.00 0.00 51 1016.1
20260902183039 81 132 4.0 5.0 0.00 0.00 0.00 51 1015.9
20260902182535 80 84 1.0 2.0 0.00 0.00 0.00 53 1016.2
20260902182031 80 44 4.0 6.0 0.00 0.00 0.00 53 1016.3
20260902181527 80 139 2.0 3.0 0.00 0.00 0.00 54 1016.6
20260902181021 80 53 5.0 6.0 0.00 0.00 0.00 54 1016.3